{"data":{"norad_id":62180,"intl_designator":"2024-225T","name":"STARLINK-32587","alt_names":[],"object_type":"PAYLOAD","status":"ACTIVE","operator":null,"country":"US","launch_date":"2024-11-30","launch_site_code":"AFWTR","launch_vehicle":null,"mission":null,"orbit_class":"UNKNOWN","rcs_meters":null,"size_class":null,"mass_kg":null,"dimensions":null,"purposes":["comms"],"wikipedia_slug":null,"has_3d_model":false,"image_url":null,"decayed_at":null,"tle_current":{"epoch":"2026-05-24T21:42:28.719648Z","epoch_age_seconds":83627,"freshness":"FRESH","line1":"1 62180U 24225T   26144.90449907 -.00004994  00000+0 -41085-3 0  9999","line2":"2 62180  70.0022 332.1080 0003218 264.3697  95.7095 14.98347992 81299","mean_motion":14.98347992,"eccentricity":0.0003218,"inclination_deg":70.0022,"raan_deg":332.108,"arg_perigee_deg":264.3697,"mean_anomaly_deg":95.7095,"bstar":-0.00041085,"rev_number":8129,"period_min":96.105845083283,"perigee_km":569.76369855741,"apogee_km":574.23680689326,"semimajor_km":6950.1372527253,"source":"CELESTRAK","updated_at":"2026-05-25T13:38:19.604201Z"}}}